Location: Unspecified
(0.0000°N, 0.0000°E)
Time: 12:11:41
(UTC+00:00)

Vanguard 3 - All Passes

Search period start: 27 June 2017 00:00
Search period end: 07 July 2017 00:00
Orbit: 507 x 3266 km, 33.4° (Epoch: 26 June)

Date Brightness Start Highest point End Pass type
(mag) Time Alt. Az. Time Alt. Az. Time Alt. Az.
27 Jun - 01:15:58 10° W 01:23:52 28° SW 01:28:58 10° SSE night (unlit)
27 Jun - 10:14:18 10° SSW 10:20:41 41° SE 10:31:36 10° ENE daylight
27 Jun - 12:25:01 10° WSW 12:34:09 59° NNW 12:50:09 10° NE daylight
27 Jun - 14:40:44 10° WNW 14:51:55 27° NNW 15:06:48 10° NNE daylight
27 Jun - 17:02:53 10° NW 17:14:07 18° N 17:25:36 10° NNE daylight
27 Jun - 19:23:26 10° NNW 19:37:05 23° NNE 19:48:03 10° ENE visible
27 Jun - 21:40:12 10° NW 21:55:54 46° NNE 22:05:21 10° E visible
27 Jun - 23:57:49 10° WNW 00:10:16 61° SW 00:17:05 10° SE visible
28 Jun - 09:03:13 10° S 09:07:10 17° SE 09:12:28 10° E daylight
28 Jun - 11:11:37 10° SW 11:19:05 90° SE 11:32:59 10° NE daylight
28 Jun - 13:24:47 10° W 13:34:43 35° NNW 13:49:55 10° NE daylight
28 Jun - 15:44:05 10° NW 15:54:51 19° N 16:07:21 10° NNE daylight
28 Jun - 18:05:54 10° NNW 18:18:20 19° N 18:29:44 10° NE visible
28 Jun - 20:23:22 10° NW 20:39:17 34° NNE 20:50:19 10° E visible
28 Jun - 22:40:16 10° NW 22:55:48 81° NE 23:04:17 10° ESE visible
29 Jun - 01:00:19 10° W 01:08:18 25° SW 01:13:37 10° S night (unlit)
29 Jun - 09:59:06 10° SSW 10:05:04 49° SE 10:15:29 10° ENE daylight
29 Jun - 12:10:12 10° WSW 12:18:35 49° NNW 12:33:06 10° NE daylight
29 Jun - 14:26:28 10° WNW 14:36:30 23° NNW 14:49:45 10° NNE daylight
29 Jun - 16:47:57 10° NW 16:58:55 17° N 17:10:17 10° NE daylight
29 Jun - 19:06:35 10° NNW 19:21:37 26° NNE 19:33:43 10° ENE visible
29 Jun - 21:23:07 10° NW 21:40:14 55° NNE 21:50:33 10° ESE visible
29 Jun - 23:41:27 10° WNW 23:54:32 52° SW 00:01:55 10° SE visible
30 Jun - 08:47:43 10° S 08:51:42 20° SE 08:57:15 10° E daylight
30 Jun - 10:56:40 10° WSW 11:03:33 75° NNW 11:16:17 10° NE daylight
30 Jun - 13:10:22 10° WNW 13:19:18 29° NNW 13:32:40 10° NNE daylight
30 Jun - 15:29:53 10° NW 15:39:38 18° N 15:50:57 10° NNE daylight
30 Jun - 17:49:46 10° NNW 18:02:59 21° NNE 18:15:17 10° NE daylight
30 Jun - 20:06:17 10° NW 20:23:37 40° NNE 20:35:39 10° E visible
30 Jun - 22:23:27 10° NW 22:40:00 87° SW 22:49:12 10° SE visible
01 Jul - 00:44:45 10° W 00:52:43 22° SW 00:58:12 10° S night (unlit)
01 Jul - 09:44:00 10° SW 09:49:32 59° SE 09:59:20 10° ENE daylight
01 Jul - 11:55:35 10° W 12:03:12 39° NNW 12:16:00 10° NE daylight
01 Jul - 14:12:27 10° NW 14:21:15 19° NNW 14:32:38 10° NNE daylight
01 Jul - 16:32:50 10° NNW 16:43:42 18° N 16:55:10 10° NE daylight
01 Jul - 18:49:47 10° NNW 19:05:59 30° NNE 19:19:11 10° ENE visible
01 Jul - 21:06:04 10° NW 21:24:24 65° NNE 21:35:34 10° ESE visible
01 Jul - 23:25:08 10° WNW 23:38:43 45° SW 23:46:39 10° SSE visible
02 Jul - 08:32:18 10° SSW 08:36:16 24° SE 08:41:57 10° E daylight
02 Jul - 10:41:51 10° WSW 10:48:09 60° NNW 10:59:34 10° NE daylight
02 Jul - 12:56:12 10° WNW 13:04:02 24° NNW 13:15:22 10° NNE daylight
02 Jul - 15:15:43 10° NNW 15:24:30 16° N 15:34:41 10° NNE daylight
02 Jul - 17:33:34 10° NNW 17:47:30 23° NNE 18:00:44 10° ENE daylight
02 Jul - 19:49:17 10° NW 20:07:44 46° NNE 20:20:47 10° E visible
02 Jul - 22:06:41 10° WNW 22:24:03 76° SW 22:34:01 10° SE visible
03 Jul - 00:29:16 10° W 00:37:07 20° SW 00:42:42 10° S visible
03 Jul - 09:28:58 10° SW 09:34:07 75° SE 09:43:12 10° ENE daylight
03 Jul - 11:41:10 10° W 11:47:58 31° NNW 11:58:52 10° NNE daylight
03 Jul - 13:58:41 10° NW 14:06:08 16° N 14:15:28 10° NNE daylight
03 Jul - 16:17:32 10° NNW 16:28:26 18° NNE 16:40:10 10° NE daylight
03 Jul - 18:33:03 10° NNW 18:50:09 34° NNE 19:04:27 10° E visible
03 Jul - 20:49:08 10° NW 21:08:21 75° NE 21:20:26 10° ESE visible
03 Jul - 23:08:53 10° WNW 23:22:50 40° SW 23:31:19 10° SSE visible
04 Jul - 08:16:58 10° SSW 08:20:52 29° SE 08:26:34 10° E daylight
04 Jul - 10:27:11 10° W 10:32:55 45° NNW 10:42:51 10° NE daylight
04 Jul - 12:42:20 10° NW 12:48:56 19° NNW 12:57:57 10° NNE daylight
04 Jul - 15:01:29 10° NNW 15:09:24 15° N 15:18:35 10° NE daylight
04 Jul - 17:17:19 10° NNW 17:31:52 25° NNE 17:46:03 10° ENE daylight
04 Jul - 19:32:23 10° NW 19:51:40 54° NNE 20:05:43 10° ESE visible
04 Jul - 21:50:01 10° WNW 22:07:58 67° SW 22:18:43 10° SE visible
05 Jul - 00:13:54 10° WSW 00:21:31 18° SW 00:27:09 10° S visible
05 Jul - 09:14:03 10° WSW 09:18:49 84° NW 09:27:03 10° NE daylight
05 Jul - 11:27:00 10° WNW 11:32:53 23° NNW 11:41:41 10° NNE daylight
05 Jul - 13:45:14 10° NNW 13:51:07 14° N 13:58:12 10° NNE daylight
05 Jul - 16:02:03 10° NNW 16:13:06 19° NNE 16:25:15 10° NE daylight
05 Jul - 18:16:24 10° NW 18:34:09 39° NNE 18:49:30 10° E visible
05 Jul - 20:32:18 10° NW 20:52:09 84° NE 21:05:09 10° ESE visible
05 Jul - 22:52:44 10° W 23:06:53 36° SW 23:15:53 10° SSE visible
06 Jul - 08:01:43 10° SSW 08:05:34 37° SE 08:11:09 10° ENE daylight
06 Jul - 10:12:41 10° W 10:17:50 33° NNW 10:26:07 10° NE daylight
06 Jul - 12:28:55 10° NW 12:33:57 14° N 12:40:18 10° NNE daylight
06 Jul - 14:47:06 10° NNW 14:54:20 14° N 15:02:42 10° NE daylight
06 Jul - 17:01:06 10° NNW 17:16:05 28° NNE 17:31:12 10° ENE daylight
06 Jul - 19:15:37 10° NW 19:35:25 61° NE 19:50:28 10° ESE visible
06 Jul - 21:33:27 10° WNW 21:51:45 60° SW 22:03:17 10° SE visible
